Temp
56 58 60 63 63 71 70 71 72 72 72 73 73 73 72 73 73 73 73 73 73 72 72 72 72 71 70 69 69 71 82 82
56 55 56 58 60 69 71 71 71 71 72 72 71 71 72 72 72 72 72 72 72 72 71 71 71 70 70 69 68 70 83 82
56 56 55 55 58 60 67 72 71 71 72 71 71 79 78 76 75 71 72 71 71 71 71 70 70 70 69 69 69 83 82 83
56 55 56 54 55 56 59 72 78 77 76 77 78 78 79 79 75 70 70 70 70 70 70 69 71 80 78 71 82 81 81 81
55 55 55 55 52 53 55 57 70 75 75 75 75 75 76 78 78 76 76 72 77 75 75 79 80 80 80 80 81 80 82 82
53 53 54 54 56 53 52 54 59 67 73 75 75 72 73 76 77 76 75 77 76 77 78 79 78 78 78 78 79 81 81 81
52 52 52 53 53 53 52 52 55 58 62 73 74 75 73 73 76 74 74 76 75 74 76 76 77 78 78 77 79 79 80 81
52 52 52 52 52 52 53 54 54 56 59 61 73 73 71 73 71 75 73 74 75 74 73 76 77 78 76 77 78 79 79 79
51 52 52 52 51 52 53 54 55 54 56 59 65 72 73 72 74 73 72 73 73 73 72 76 76 77 76 76 78 79 79 78
52 52 52 52 52 53 53 54 54 54 53 53 57 64 72 72 72 72 70 72 71 70 70 72 75 75 75 76 77 78 78 78
51 51 50 51 51 52 52 53 54 53 52 53 55 57 62 69 70 72 73 70 70 67 69 74 73 73 74 75 76 73 74 75
52 51 49 50 50 51 51 52 53 54 54 52 55 56 59 61 70 70 72 72 68 66 67 72 74 74 74 72 74 71 70 72
50 50 48 49 47 47 47 46 49 51 53 54 54 54 54 54 65 69 69 70 69 66 65 69 71 74 71 68 69 68 68 69
49 49 49 47 47 47 49 49 49 50 52 52 54 54 53 54 56 63 68 68 67 65 65 65 70 72 69 67 59 64 64 66
48 49 50 49 47 47 46 48 49 48 48 50 52 53 55 55 55 58 63 67 66 65 64 66 66 69 73 70 63 63 69 65
49 49 50 50 49 45 42 41 40 45 46 49 51 52 52 54 55 57 61 60 66 65 65 65 66 66 71 75 75 74 68 64
49 50 50 50 49 47 43 41 42 44 46 46 47 48 51 53 53 56 60 59 60 59 63 64 65 66 69 70 70 71 74 72
49 49 49 49 49 48 45 41 41 40 41 43 44 46 47 50 50 49 52 59 60 61 60 63 63 64 68 71 72 69 69 72
48 48 47 49 48 47 47 45 42 40 40 40 42 42 43 46 47 47 49 52 60 60 60 60 59 61 63 68 73 73 76 74
47 47 46 47 47 47 47 46 45 41 40 41 41 41 41 44 45 47 49 51 54 61 60 60 61 61 61 65 69 73 74 77
MSLP
1019.49 1018.88 1018.16 1017.19 1016.70 1015.80 1015.92 1016.21 1016.19 1016.07 1015.64 1015.69 1015.91 1015.78 1015.87 1016.13 1016.52 1016.98 1017.24 1017.55 1017.97 1018.15 1018.44 1018.80 1019.04 1019.15 1019.68 1020.01 1020.28 1020.40 1020.41 1020.85
1020.39 1019.79 1019.12 1018.33 1017.54 1016.15 1015.69 1015.93 1016.28 1016.38 1016.27 1016.02 1016.23 1016.20 1016.16 1016.03 1016.26 1017.12 1017.14 1017.64 1017.95 1018.38 1018.52 1019.00 1019.25 1019.35 1019.83 1020.11 1020.53 1020.69 1020.46 1020.95
1021.40 1020.54 1019.92 1019.42 1018.28 1017.52 1016.23 1015.71 1016.03 1016.52 1016.25 1016.07 1016.15 1016.37 1016.51 1016.33 1016.38 1016.76 1017.24 1017.68 1017.91 1018.49 1018.64 1019.10 1019.37 1019.75 1019.94 1020.35 1020.62 1020.41 1020.63 1020.86
1021.99 1021.44 1020.58 1019.98 1019.39 1018.33 1017.24 1015.70 1015.54 1015.80 1016.12 1015.93 1015.90 1016.17 1016.61 1016.46 1016.78 1016.92 1017.17 1017.66 1017.84 1018.39 1018.76 1019.25 1019.55 1019.62 1020.11 1020.55 1020.09 1020.40 1020.71 1021.01
1022.52 1022.09 1021.51 1020.80 1020.06 1019.34 1018.46 1017.42 1015.69 1015.36 1015.66 1016.38 1015.57 1015.74 1016.39 1016.84 1016.55 1017.05 1017.36 1017.89 1017.92 1018.37 1018.87 1019.04 1019.10 1019.43 1019.61 1019.79 1020.02 1020.44 1020.59 1020.93
1023.12 1022.69 1022.01 1021.65 1021.10 1020.21 1019.84 1018.63 1017.59 1016.20 1015.34 1015.20 1015.31 1015.42 1015.73 1016.05 1016.30 1016.48 1017.07 1017.47 1017.51 1018.00 1018.29 1018.55 1019.05 1019.47 1019.61 1019.87 1020.01 1020.09 1020.48 1020.85
1023.67 1023.00 1022.47 1022.16 1021.46 1020.75 1020.18 1019.15 1017.99 1016.92 1016.13 1014.32 1014.43 1014.79 1015.11 1015.56 1016.16 1016.10 1016.62 1016.97 1017.47 1017.87 1018.11 1018.48 1018.75 1019.21 1019.64 1019.71 1019.85 1020.03 1020.46 1020.76
1024.34 1023.48 1022.69 1021.92 1020.98 1020.78 1020.40 1019.40 1018.52 1017.87 1016.59 1015.09 1012.16 1013.53 1014.39 1015.12 1015.24 1015.58 1015.90 1016.67 1017.25 1017.63 1017.94 1018.03 1018.41 1018.74 1019.41 1019.70 1019.72 1019.93 1020.28 1020.72
1025.06 1024.26 1023.43 1022.52 1021.61 1020.89 1020.00 1019.32 1019.14 1018.35 1016.46 1015.22 1014.07 1012.20 1013.61 1014.05 1014.55 1014.93 1015.62 1015.82 1016.78 1017.59 1018.09 1017.94 1018.23 1018.54 1019.08 1019.55 1019.76 1019.92 1020.03 1020.54
1025.63 1025.01 1024.21 1023.14 1022.10 1021.34 1020.39 1019.54 1018.73 1018.21 1017.01 1015.32 1015.07 1013.46 1012.69 1013.60 1013.78 1014.49 1014.32 1016.18 1015.83 1016.89 1017.79 1017.93 1017.82 1018.28 1018.73 1019.24 1019.53 1019.80 1019.96 1020.25
1025.89 1025.24 1024.59 1023.66 1022.61 1021.51 1020.64 1020.01 1018.85 1018.09 1017.56 1016.71 1015.68 1014.98 1011.88 1011.34 1012.67 1013.35 1014.34 1014.84 1015.34 1016.49 1017.34 1017.55 1017.64 1017.78 1018.29 1018.97 1019.31 1019.82 1020.04 1020.24
1026.29 1025.69 1025.01 1024.05 1023.00 1021.91 1021.04 1020.16 1019.37 1018.51 1017.60 1017.31 1016.57 1015.64 1014.39 1012.45 1011.82 1012.17 1012.73 1013.61 1014.67 1015.85 1016.82 1017.19 1017.24 1017.52 1017.89 1018.79 1019.24 1019.80 1020.01 1020.11
1026.60 1025.78 1025.27 1024.31 1023.26 1022.09 1020.93 1020.25 1019.48 1018.91 1018.22 1017.54 1017.09 1016.30 1015.20 1014.47 1011.43 1011.21 1011.38 1012.54 1013.58 1014.92 1015.99 1016.89 1016.93 1017.35 1017.85 1018.53 1019.28 1019.80 1019.79 1019.92
1027.06 1026.31 1025.36 1024.60 1024.01 1023.11 1022.35 1021.00 1020.05 1019.00 1018.13 1017.53 1016.74 1015.96 1015.03 1013.54 1012.63 1010.76 1010.10 1010.68 1012.35 1013.61 1014.73 1015.87 1016.47 1016.63 1016.40 1017.16 1018.50 1019.62 1019.65 1019.56
1027.39 1026.59 1025.70 1024.86 1024.21 1023.48 1022.70 1021.66 1020.17 1018.93 1018.34 1017.46 1016.63 1015.81 1014.76 1013.96 1012.33 1012.15 1010.75 1009.69 1010.79 1012.19 1013.33 1014.10 1015.10 1015.81 1015.54 1015.27 1016.20 1016.79 1017.90 1019.01
1027.59 1026.78 1025.85 1024.98 1024.20 1023.58 1022.90 1022.10 1020.99 1019.82 1018.74 1017.83 1016.70 1015.91 1015.09 1014.06 1013.05 1011.65 1010.27 1011.17 1010.14 1011.52 1012.41 1012.90 1013.91 1014.63 1015.13 1014.73 1014.34 1014.39 1015.53 1017.22
1027.53 1026.75 1025.80 1025.08 1024.42 1023.76 1023.14 1022.34 1021.61 1020.57 1019.37 1018.02 1017.00 1015.97 1015.06 1014.04 1013.24 1012.35 1011.66 1009.89 1010.49 1011.91 1011.46 1012.07 1012.54 1013.04 1013.76 1013.82 1014.11 1014.37 1014.38 1015.00
1027.33 1026.53 1025.64 1025.05 1024.49 1023.89 1023.18 1022.50 1021.52 1020.54 1019.72 1018.48 1017.16 1016.14 1015.21 1014.32 1013.50 1012.82 1012.04 1011.11 1010.53 1009.97 1011.64 1011.88 1011.48 1011.97 1012.62 1013.14 1013.06 1012.91 1013.26 1013.56
1027.35 1026.53 1025.46 1024.87 1024.36 1023.97 1023.27 1022.51 1021.79 1020.81 1020.07 1019.06 1017.75 1016.43 1015.49 1014.73 1013.90 1013.07 1012.31 1011.67 1010.58 1010.14 1010.02 1011.19 1011.91 1011.56 1011.92 1011.90 1012.25 1012.30 1012.55 1013.06
1027.42 1026.57 1025.68 1025.01 1024.40 1023.86 1023.23 1022.60 1021.82 1021.15 1020.26 1019.48 1018.38 1017.23 1016.06 1015.24 1014.31 1013.18 1012.15 1011.25 1010.32 1009.40 1009.88 1010.16 1011.14 1011.13 1012.47 1011.92 1011.31 1011.66 1012.08 1012.01
Wind_Speed
20 20 24 26 26 4 4 7 6 6 8 10 12 13 15 15 14 12 12 12 13 14 16 16 17 17 16 14 13 13 15 11
21 19 19 19 17 16 5 4 6 8 7 8 8 11 13 15 15 11 13 13 14 14 15 15 15 16 15 14 13 11 14 13
20 21 18 18 16 16 16 7 5 9 9 8 8 11 13 15 14 14 13 13 14 13 14 13 12 12 14 13 14 9 11 9
21 21 21 18 13 16 14 7 8 9 10 12 11 10 11 12 11 13 13 13 13 13 13 10 13 11 10 12 9 10 9 9
24 21 20 20 14 12 8 8 6 7 11 11 9 7 8 9 8 9 10 11 10 12 12 12 14 10 11 11 10 11 8 8
24 23 20 19 13 9 10 8 9 9 9 12 10 6 8 9 8 10 9 9 12 12 10 13 13 13 12 12 13 10 7 7
23 22 20 18 16 12 10 10 8 11 12 12 10 10 9 8 9 8 8 10 11 11 12 12 13 13 11 13 13 12 12 7
23 23 20 21 18 18 12 10 11 10 10 13 16 10 8 9 10 10 8 9 10 11 12 12 12 12 11 12 13 12 13 11
21 21 22 22 21 17 13 12 12 11 9 14 19 13 12 11 10 9 7 9 12 10 11 12 12 12 13 11 11 12 12 13
21 19 21 22 20 16 14 13 12 11 10 10 19 14 16 13 11 10 10 9 10 9 11 12 13 13 11 10 9 10 12 13
22 20 21 22 20 15 16 17 13 11 11 9 15 19 17 16 11 11 15 11 9 9 10 13 13 13 12 10 9 8 10 10
19 16 20 19 14 14 13 12 13 13 12 10 13 13 17 15 13 14 13 11 10 10 12 13 13 13 12 10 8 8 7 10
20 20 16 13 13 15 13 13 14 12 12 17 17 13 16 16 13 16 16 15 15 14 12 15 13 13 11 7 6 7 9 8
18 18 19 13 11 11 13 13 13 12 11 15 16 16 15 15 15 12 18 16 16 16 16 12 12 13 13 11 6 6 6 8
17 17 17 15 15 11 10 13 12 9 13 13 14 18 16 14 17 12 12 14 14 16 18 21 14 13 17 10 9 9 11 6
16 17 17 16 17 12 17 11 14 13 13 13 14 16 17 17 16 15 13 10 13 15 16 18 16 14 15 14 12 7 12 9
14 16 16 17 17 16 12 14 11 11 13 18 17 13 17 18 15 18 10 7 10 7 7 17 15 15 15 16 11 9 11 11
15 17 17 17 17 18 17 16 17 14 14 14 12 10 11 16 15 14 15 10 10 10 13 12 16 16 14 15 16 15 12 13
15 17 19 19 18 18 18 18 16 16 14 13 17 11 10 13 16 13 12 13 11 12 14 12 6 11 16 17 14 15 12 11
16 18 18 19 18 18 17 19 12 11 13 12 11 10 11 15 14 14 14 14 15 12 12 14 15 10 15 15 15 15 13 13
Wind_Direction
6 1 357 353 346 283 305 295 272 226 181 174 172 162 161 160 156 163 154 147 146 151 150 151 148 143 142 139 138 155 147 152
4 0 358 353 341 309 258 240 273 258 216 189 180 170 169 161 154 164 153 152 151 157 153 156 151 148 147 145 136 144 152 153
3 358 359 355 346 339 323 225 217 263 232 202 172 193 188 174 179 157 159 157 153 157 155 158 148 151 148 144 148 166 159 163
3 359 354 357 346 340 335 292 236 228 230 212 198 199 202 194 180 159 160 159 155 155 157 152 161 167 162 149 177 169 169 172
1 357 356 355 352 343 337 322 294 220 227 236 204 186 199 205 183 175 178 170 172 169 168 179 180 180 175 182 177 174 174 176
355 355 354 354 348 347 331 324 323 315 230 221 212 190 190 198 200 182 183 186 177 183 183 188 185 188 183 186 184 177 178 176
356 351 351 349 347 345 334 329 328 325 316 223 204 205 195 191 206 188 186 182 185 184 187 187 189 186 186 182 182 179 177 179
353 352 352 349 348 346 338 330 325 319 310 308 195 188 195 185 200 202 182 185 192 189 190 190 191 188 189 190 190 186 181 182
357 352 351 350 345 342 337 336 326 311 315 318 316 185 197 194 195 198 200 181 186 196 200 194 195 194 195 191 192 196 186 184
356 355 352 351 347 341 336 333 332 326 322 352 299 322 198 203 201 184 184 204 179 185 198 201 195 197 194 197 199 200 198 189
357 356 353 348 346 343 338 333 335 329 324 317 325 321 298 186 205 200 188 184 189 182 201 208 201 195 195 194 196 203 202 195
356 357 349 349 344 343 342 336 335 333 331 319 316 319 317 316 207 200 194 187 184 187 198 211 209 199 188 194 198 204 200 202
354 357 350 349 345 345 344 340 334 332 328 331 326 310 314 322 275 196 185 192 189 185 188 208 207 196 177 180 195 213 205 204
356 352 358 353 346 337 339 333 332 324 330 326 327 325 315 312 304 284 189 186 188 183 187 195 206 192 195 169 171 206 225 210
355 354 353 358 347 338 331 332 334 334 335 332 335 326 319 305 298 289 284 188 189 190 189 189 197 198 207 188 168 205 187 186
354 354 356 356 356 344 343 337 339 334 332 330 329 335 326 316 314 285 293 302 192 197 193 194 189 200 206 212 207 178 192 185
350 352 354 356 356 354 345 336 331 329 336 334 335 333 328 320 315 320 238 294 260 221 245 194 196 192 203 200 204 194 202 197
348 348 349 355 356 353 349 346 332 336 339 338 335 333 331 327 328 327 326 250 253 231 210 249 197 204 197 210 208 198 192 194
348 348 347 348 350 349 350 349 342 333 335 336 338 335 336 332 327 324 316 303 261 220 225 215 273 235 211 205 212 216 211 208
344 344 343 344 344 344 348 348 346 339 337 333 328 332 334 329 324 319 312 298 304 223 214 214 206 219 242 234 210 213 213 204